"Time","Value","Approval","myLocation"
"2023-05-06 00:00",3.90129538677425,"Approved","OW361"
"2023-05-06 01:00",3.90529810559551,"Approved","OW361"
"2023-05-06 02:00",3.90630082441677,"Approved","OW361"
"2023-05-06 03:00",3.90730354323803,"Approved","OW361"
"2023-05-06 04:00",3.90830626205929,"Approved","OW361"
"2023-05-06 05:00",3.91030898088055,"Approved","OW361"
"2023-05-06 06:00",3.90831169970181,"Approved","OW361"
"2023-05-06 07:00",3.90831441852307,"Approved","OW361"
"2023-05-06 08:00",3.90631713734433,"Approved","OW361"
"2023-05-06 09:00",3.90531985616558,"Approved","OW361"
"2023-05-06 10:00",3.90432257498684,"Approved","OW361"
"2023-05-06 11:00",3.9033252938081,"Approved","OW361"
"2023-05-06 12:00",3.90232801262936,"Approved","OW361"
"2023-05-06 13:00",3.90133073145062,"Approved","OW361"
"2023-05-06 14:00",3.90133345027188,"Approved","OW361"
"2023-05-06 15:00",3.90233616909314,"Approved","OW361"
"2023-05-06 16:00",3.9033388879144,"Approved","OW361"
"2023-05-06 17:00",3.90334160673566,"Approved","OW361"
"2023-05-06 18:00",3.90634432555692,"Approved","OW361"
"2023-05-06 19:00",3.90634704437818,"Approved","OW361"
"2023-05-06 20:00",3.90634976319944,"Approved","OW361"
"2023-05-06 21:00",3.9053524820207,"Approved","OW361"
"2023-05-06 22:00",3.90635520084196,"Approved","OW361"
"2023-05-06 23:00",3.90635791966322,"Approved","OW361"
"2023-05-07 00:00",3.90636063848448,"Approved","OW361"
"2023-05-07 01:00",3.90536335730574,"Approved","OW361"
"2023-05-07 02:00",3.906366076127,"Approved","OW361"
"2023-05-07 03:00",3.90636879494825,"Approved","OW361"
"2023-05-07 04:00",3.90737151376951,"Approved","OW361"
"2023-05-07 05:00",3.90737423259077,"Approved","OW361"
"2023-05-07 06:00",3.90637695141203,"Approved","OW361"
"2023-05-07 07:00",3.90637967023329,"Approved","OW361"
"2023-05-07 08:00",3.90738238905455,"Approved","OW361"
"2023-05-07 09:00",3.90738510787581,"Approved","OW361"
"2023-05-07 10:00",3.90738782669707,"Approved","OW361"
"2023-05-07 11:00",3.90739054551833,"Approved","OW361"
"2023-05-07 12:00",3.90739326433959,"Approved","OW361"
"2023-05-07 13:00",3.90839598316085,"Approved","OW361"
"2023-05-07 14:00",3.91039870198211,"Approved","OW361"
"2023-05-07 15:00",3.91440142080337,"Approved","OW361"
"2023-05-07 16:00",3.91640413962463,"Approved","OW361"
"2023-05-07 17:00",3.91740685844589,"Approved","OW361"
"2023-05-07 18:00",3.91640957726715,"Approved","OW361"
"2023-05-07 19:00",3.91541229608841,"Approved","OW361"
"2023-05-07 20:00",3.91441501490967,"Approved","OW361"
"2023-05-07 21:00",3.91341773373092,"Approved","OW361"
"2023-05-07 22:00",3.91142045255218,"Approved","OW361"
"2023-05-07 23:00",3.90942317137344,"Approved","OW361"
"2023-05-08 00:00",3.9064258901947,"Approved","OW361"
"2023-05-08 01:00",3.90542860901596,"Approved","OW361"
"2023-05-08 02:00",3.90343132783722,"Approved","OW361"
"2023-05-08 03:00",3.90343404665848,"Approved","OW361"
"2023-05-08 04:00",3.90543676547974,"Approved","OW361"
"2023-05-08 05:00",3.906439484301,"Approved","OW361"
"2023-05-08 06:00",3.90744220312226,"Approved","OW361"
"2023-05-08 07:00",3.90544492194352,"Approved","OW361"
"2023-05-08 08:00",3.90344764076478,"Approved","OW361"
"2023-05-08 09:00",3.90245035958604,"Approved","OW361"
"2023-05-08 10:00",3.9004530784073,"Approved","OW361"
"2023-05-08 11:00",3.89945579722856,"Approved","OW361"
"2023-05-08 12:00",3.89745851604982,"Approved","OW361"
"2023-05-08 13:00",3.89846123487108,"Approved","OW361"
"2023-05-08 14:00",3.89946395369233,"Approved","OW361"
"2023-05-08 15:00",3.89946667251359,"Approved","OW361"
"2023-05-08 16:00",3.89846939133485,"Approved","OW361"
"2023-05-08 17:00",3.89547211015611,"Approved","OW361"
"2023-05-08 18:00",3.89347482897737,"Approved","OW361"
"2023-05-08 19:00",3.89147754779863,"Approved","OW361"
"2023-05-08 20:00",3.89148026661989,"Approved","OW361"
"2023-05-08 21:00",3.89048298544115,"Approved","OW361"
"2023-05-08 22:00",3.88848570426241,"Approved","OW361"
"2023-05-08 23:00",3.88748842308367,"Approved","OW361"
"2023-05-09 00:00",3.88749114190493,"Approved","OW361"
"2023-05-09 01:00",3.88949386072619,"Approved","OW361"
"2023-05-09 02:00",3.89049657954745,"Approved","OW361"
"2023-05-09 03:00",3.89349929836871,"Approved","OW361"
"2023-05-09 04:00",3.89850201718997,"Approved","OW361"
"2023-05-09 05:00",3.90250473601123,"Approved","OW361"
"2023-05-09 06:00",3.90550745483249,"Approved","OW361"
"2023-05-09 07:00",3.90551017365374,"Approved","OW361"
"2023-05-09 08:00",3.906512892475,"Approved","OW361"
"2023-05-09 09:00",3.90951561129626,"Approved","OW361"
"2023-05-09 10:00",3.91351833011752,"Approved","OW361"
"2023-05-09 11:00",3.91852104893878,"Approved","OW361"
"2023-05-09 12:00",3.92052376776004,"Approved","OW361"
"2023-05-09 13:00",3.9235264865813,"Approved","OW361"
"2023-05-09 14:00",3.92652920540256,"Approved","OW361"
"2023-05-09 15:00",3.93253192422382,"Approved","OW361"
"2023-05-09 16:00",3.93153464304508,"Approved","OW361"
"2023-05-09 17:00",3.93153736186634,"Approved","OW361"
"2023-05-09 18:00",3.9305400806876,"Approved","OW361"
"2023-05-09 19:00",3.93154279950886,"Approved","OW361"
"2023-05-09 20:00",3.92954551833012,"Approved","OW361"
"2023-05-09 21:00",3.92454823715138,"Approved","OW361"
"2023-05-09 22:00",3.92255095597264,"Approved","OW361"
"2023-05-09 23:00",3.9185536747939,"Approved","OW361"
"2023-05-10 00:00",3.91555639361516,"Approved","OW361"
"2023-05-10 01:00",3.91455911243641,"Approved","OW361"
"2023-05-10 02:00",3.91556183125767,"Approved","OW361"
"2023-05-10 03:00",3.91656455007893,"Approved","OW361"
"2023-05-10 04:00",3.91956726890019,"Approved","OW361"
"2023-05-10 05:00",3.92156998772145,"Approved","OW361"
"2023-05-10 06:00",3.92157270654271,"Approved","OW361"
"2023-05-10 07:00",3.92257542536397,"Approved","OW361"
"2023-05-10 08:00",3.92257814418523,"Approved","OW361"
"2023-05-10 09:00",3.92058086300649,"Approved","OW361"
"2023-05-10 10:00",3.91858358182775,"Approved","OW361"
"2023-05-10 11:00",3.91958630064901,"Approved","OW361"
"2023-05-10 12:00",3.91958901947027,"Approved","OW361"
"2023-05-10 13:00",3.91759173829153,"Approved","OW361"
"2023-05-10 14:00",3.91759445711279,"Approved","OW361"
"2023-05-10 15:00",3.91759717593405,"Approved","OW361"
"2023-05-10 16:00",3.91959989475531,"Approved","OW361"
"2023-05-10 17:00",3.91860261357657,"Approved","OW361"
"2023-05-10 18:00",3.91560533239783,"Approved","OW361"
"2023-05-10 19:00",3.91460805121908,"Approved","OW361"
"2023-05-10 20:00",3.91161077004034,"Approved","OW361"
"2023-05-10 21:00",3.9076134888616,"Approved","OW361"
"2023-05-10 22:00",3.90661620768286,"Approved","OW361"
"2023-05-10 23:00",3.90661892650412,"Approved","OW361"
"2023-05-11 00:00",3.90562164532538,"Approved","OW361"
"2023-05-11 01:00",3.90462436414664,"Approved","OW361"
"2023-05-11 02:00",3.9026270829679,"Approved","OW361"
"2023-05-11 03:00",3.90462980178916,"Approved","OW361"
"2023-05-11 04:00",3.90963252061042,"Approved","OW361"
"2023-05-11 05:00",3.91863523943168,"Approved","OW361"
"2023-05-11 06:00",3.92263795825294,"Approved","OW361"
"2023-05-11 07:00",3.9256406770742,"Approved","OW361"
"2023-05-11 08:00",3.92764339589546,"Approved","OW361"
"2023-05-11 09:00",3.92964611471672,"Approved","OW361"
"2023-05-11 10:00",3.93164883353798,"Approved","OW361"
"2023-05-11 11:00",3.93365155235924,"Approved","OW361"
"2023-05-11 12:00",3.93665427118049,"Approved","OW361"
"2023-05-11 13:00",3.93965699000175,"Approved","OW361"
"2023-05-11 14:00",3.94265970882301,"Approved","OW361"
"2023-05-11 15:00",3.94566242764427,"Approved","OW361"
"2023-05-11 16:00",3.94866514646553,"Approved","OW361"
"2023-05-11 17:00",3.94966786528679,"Approved","OW361"
"2023-05-11 18:00",3.95067058410805,"Approved","OW361"
"2023-05-11 19:00",3.94767330292931,"Approved","OW361"
"2023-05-11 20:00",3.94367602175057,"Approved","OW361"
"2023-05-11 21:00",3.94267874057183,"Approved","OW361"
"2023-05-11 22:00",3.93868145939309,"Approved","OW361"
"2023-05-11 23:00",3.93668417821435,"Approved","OW361"
"2023-05-12 00:00",3.93368689703561,"Approved","OW361"
"2023-05-12 01:00",3.93268961585687,"Approved","OW361"
"2023-05-12 02:00",3.93169233467813,"Approved","OW361"
"2023-05-12 03:00",3.93169505349939,"Approved","OW361"
"2023-05-12 04:00",3.93369777232065,"Approved","OW361"
"2023-05-12 05:00",3.93970049114191,"Approved","OW361"
"2023-05-12 06:00",3.94370320996316,"Approved","OW361"
"2023-05-12 07:00",3.94770592878442,"Approved","OW361"
"2023-05-12 08:00",3.95170864760568,"Approved","OW361"
"2023-05-12 09:00",3.95671136642694,"Approved","OW361"
"2023-05-12 10:00",3.9577140852482,"Approved","OW361"
"2023-05-12 11:00",3.95771680406946,"Approved","OW361"
"2023-05-12 12:00",3.95971952289072,"Approved","OW361"
"2023-05-12 13:00",3.96072224171198,"Approved","OW361"
"2023-05-12 14:00",3.96372496053324,"Approved","OW361"
"2023-05-12 15:00",3.9667276793545,"Approved","OW361"
"2023-05-12 16:00",3.97073039817576,"Approved","OW361"
"2023-05-12 17:00",3.97173311699702,"Approved","OW361"
"2023-05-12 18:00",3.97173583581828,"Approved","OW361"
"2023-05-12 19:00",3.97073855463954,"Approved","OW361"
"2023-05-12 20:00",3.9687412734608,"Approved","OW361"
"2023-05-12 21:00",3.96674399228206,"Approved","OW361"
"2023-05-12 22:00",3.96474671110332,"Approved","OW361"
"2023-05-12 23:00",3.96174942992457,"Approved","OW361"
"2023-05-13 00:00",3.95975214874583,"Approved","OW361"
"2023-05-13 01:00",3.95875486756709,"Approved","OW361"
"2023-05-13 02:00",3.95775758638835,"Approved","OW361"
"2023-05-13 03:00",3.95876030520961,"Approved","OW361"
"2023-05-13 04:00",3.96076302403087,"Approved","OW361"
"2023-05-13 05:00",3.96576574285213,"Approved","OW361"
"2023-05-13 06:00",3.96976846167339,"Approved","OW361"
"2023-05-13 07:00",3.96977118049465,"Approved","OW361"
"2023-05-13 08:00",3.97477389931591,"Approved","OW361"
"2023-05-13 09:00",3.97677661813717,"Approved","OW361"
"2023-05-13 10:00",3.97877933695843,"Approved","OW361"
"2023-05-13 11:00",3.97978205577969,"Approved","OW361"
"2023-05-13 12:00",3.98078477460095,"Approved","OW361"
"2023-05-13 13:00",3.98278749342221,"Approved","OW361"
"2023-05-13 14:00",3.98679021224347,"Approved","OW361"
"2023-05-13 15:00",3.98879293106473,"Approved","OW361"
"2023-05-13 16:00",3.98979564988598,"Approved","OW361"
"2023-05-13 17:00",3.98879836870724,"Approved","OW361"
"2023-05-13 18:00",3.9868010875285,"Approved","OW361"
"2023-05-13 19:00",3.98280380634976,"Approved","OW361"
"2023-05-13 20:00",3.97880652517102,"Approved","OW361"
"2023-05-13 21:00",3.97380924399228,"Approved","OW361"
"2023-05-13 22:00",3.96681196281354,"Approved","OW361"
"2023-05-13 23:00",3.9598146816348,"Approved","OW361"
"2023-05-14 00:00",3.95381740045606,"Approved","OW361"
"2023-05-14 01:00",3.94982011927732,"Approved","OW361"
"2023-05-14 02:00",3.94782283809858,"Approved","OW361"
"2023-05-14 03:00",3.94582555691984,"Approved","OW361"
"2023-05-14 04:00",3.9508282757411,"Approved","OW361"
"2023-05-14 05:00",3.95583099456236,"Approved","OW361"
"2023-05-14 06:00",3.95883371338362,"Approved","OW361"
"2023-05-14 07:00",3.96083643220488,"Approved","OW361"
"2023-05-14 08:00",3.96083915102614,"Approved","OW361"
"2023-05-14 09:00",3.9608418698474,"Approved","OW361"
"2023-05-14 10:00",3.95884458866865,"Approved","OW361"
"2023-05-14 11:00",3.95784730748991,"Approved","OW361"
"2023-05-14 12:00",3.95985002631117,"Approved","OW361"
"2023-05-14 13:00",3.95785274513243,"Approved","OW361"
"2023-05-14 14:00",3.95885546395369,"Approved","OW361"
"2023-05-14 15:00",3.95885818277495,"Approved","OW361"
"2023-05-14 16:00",3.95686090159621,"Approved","OW361"
"2023-05-14 17:00",3.95286362041747,"Approved","OW361"
"2023-05-14 18:00",3.94986633923873,"Approved","OW361"
"2023-05-14 19:00",3.94386905805999,"Approved","OW361"
"2023-05-14 20:00",3.93987177688125,"Approved","OW361"
"2023-05-14 21:00",3.93587449570251,"Approved","OW361"
"2023-05-14 22:00",3.93387721452377,"Approved","OW361"
"2023-05-14 23:00",3.93187993334503,"Approved","OW361"
"2023-05-15 00:00",3.92988265216629,"Approved","OW361"
"2023-05-15 01:00",3.93088537098755,"Approved","OW361"
"2023-05-15 02:00",3.93288808980881,"Approved","OW361"
"2023-05-15 03:00",3.93589080863006,"Approved","OW361"
"2023-05-15 04:00",3.94189352745132,"Approved","OW361"
"2023-05-15 05:00",3.94789624627258,"Approved","OW361"
"2023-05-15 06:00",3.95089896509384,"Approved","OW361"
"2023-05-15 07:00",3.9529016839151,"Approved","OW361"
"2023-05-15 08:00",3.95190440273636,"Approved","OW361"
"2023-05-15 09:00",3.95190712155762,"Approved","OW361"
"2023-05-15 10:00",3.95190984037888,"Approved","OW361"
"2023-05-15 11:00",3.94991255920014,"Approved","OW361"
"2023-05-15 12:00",3.9499152780214,"Approved","OW361"
"2023-05-15 13:00",3.94991799684266,"Approved","OW361"
"2023-05-15 14:00",3.95592071566392,"Approved","OW361"
"2023-05-15 15:00",3.95792343448518,"Approved","OW361"
"2023-05-15 16:00",3.95892615330644,"Approved","OW361"
"2023-05-15 17:00",3.9579288721277,"Approved","OW361"
"2023-05-15 18:00",3.95693159094896,"Approved","OW361"
"2023-05-15 19:00",3.95693430977022,"Approved","OW361"
"2023-05-15 20:00",3.95493702859148,"Approved","OW361"
"2023-05-15 21:00",3.95493974741273,"Approved","OW361"
"2023-05-15 22:00",3.95394246623399,"Approved","OW361"
"2023-05-15 23:00",3.95094518505525,"Approved","OW361"
"2023-05-16 00:00",3.94894790387651,"Approved","OW361"
"2023-05-16 01:00",3.94995062269777,"Approved","OW361"
"2023-05-16 02:00",3.94995334151903,"Approved","OW361"
"2023-05-16 03:00",3.95195606034029,"Approved","OW361"
"2023-05-16 04:00",3.95895877916155,"Approved","OW361"
"2023-05-16 05:00",3.96496149798281,"Approved","OW361"
"2023-05-16 06:00",3.97196421680407,"Approved","OW361"
"2023-05-16 07:00",3.98296693562533,"Approved","OW361"
"2023-05-16 08:00",3.99196965444659,"Approved","OW361"
"2023-05-16 09:00",4.00297237326785,"Approved","OW361"
"2023-05-16 10:00",4.00797509208911,"Approved","OW361"
"2023-05-16 11:00",4.00997781091037,"Approved","OW361"
"2023-05-16 12:00",4.01098052973163,"Approved","OW361"
"2023-05-16 13:00",4.00998324855289,"Approved","OW361"
"2023-05-16 14:00",4.01598596737414,"Approved","OW361"
"2023-05-16 15:00",4.0189886861954,"Approved","OW361"
"2023-05-16 16:00",4.02099140501666,"Approved","OW361"
"2023-05-16 17:00",4.02299412383792,"Approved","OW361"
"2023-05-16 18:00",4.02299684265918,"Approved","OW361"
"2023-05-16 19:00",4.02099956148044,"Approved","OW361"
"2023-05-16 20:00",4.0160022803017,"Approved","OW361"
"2023-05-16 21:00",4.01300499912296,"Approved","OW361"
"2023-05-16 22:00",4.00600771794422,"Approved","OW361"
"2023-05-16 23:00",4.00101043676548,"Approved","OW361"
"2023-05-17 00:00",3.99501315558674,"Approved","OW361"
"2023-05-17 01:00",3.996015874408,"Approved","OW361"
"2023-05-17 02:00",3.99501859322926,"Approved","OW361"
"2023-05-17 03:00",3.99802131205052,"Approved","OW361"
"2023-05-17 04:00",3.99802403087178,"Approved","OW361"
"2023-05-17 05:00",4.00502674969304,"Approved","OW361"
"2023-05-17 06:00",4.0090294685143,"Approved","OW361"
"2023-05-17 07:00",4.00203218733555,"Approved","OW361"
"2023-05-17 08:00",4.00503490615681,"Approved","OW361"
"2023-05-17 09:00",4.00703762497807,"Approved","OW361"
"2023-05-17 10:00",4.00604034379933,"Approved","OW361"
"2023-05-17 11:00",4.00604306262059,"Approved","OW361"
"2023-05-17 12:00",4.00604578144185,"Approved","OW361"
"2023-05-17 13:00",4.00804850026311,"Approved","OW361"
"2023-05-17 14:00",4.00905121908437,"Approved","OW361"
"2023-05-17 15:00",4.00805393790563,"Approved","OW361"
"2023-05-17 16:00",4.00505665672689,"Approved","OW361"
"2023-05-17 17:00",4.00205937554815,"Approved","OW361"
"2023-05-17 18:00",4.00006209436941,"Approved","OW361"
"2023-05-17 19:00",3.99606481319067,"Approved","OW361"
"2023-05-17 20:00",3.99206753201193,"Approved","OW361"
"2023-05-17 21:00",3.98807025083319,"Approved","OW361"
"2023-05-17 22:00",3.98407296965445,"Approved","OW361"
"2023-05-17 23:00",3.97907568847571,"Approved","OW361"
"2023-05-18 00:00",3.97507840729697,"Approved","OW361"
"2023-05-18 01:00",3.97208112611822,"Approved","OW361"
"2023-05-18 02:00",3.97108384493948,"Approved","OW361"
"2023-05-18 03:00",3.97208656376074,"Approved","OW361"
"2023-05-18 04:00",3.976089282582,"Approved","OW361"
"2023-05-18 05:00",3.98209200140326,"Approved","OW361"
"2023-05-18 06:00",3.98509472022452,"Approved","OW361"
"2023-05-18 07:00",3.98909743904578,"Approved","OW361"
"2023-05-18 08:00",3.99210015786704,"Approved","OW361"
"2023-05-18 09:00",3.9951028766883,"Approved","OW361"
"2023-05-18 10:00",3.99710559550956,"Approved","OW361"
"2023-05-18 11:00",3.99810831433082,"Approved","OW361"
"2023-05-18 12:00",4.00011103315208,"Approved","OW361"
"2023-05-18 13:00",4.00311375197334,"Approved","OW361"
"2023-05-18 14:00",4.0061164707946,"Approved","OW361"
"2023-05-18 15:00",4.01111918961586,"Approved","OW361"
"2023-05-18 16:00",4.01512190843712,"Approved","OW361"
"2023-05-18 17:00",4.01812462725838,"Approved","OW361"
"2023-05-18 18:00",4.01912734607964,"Approved","OW361"
"2023-05-18 19:00",4.02013006490089,"Approved","OW361"
"2023-05-18 20:00",4.02213278372215,"Approved","OW361"
"2023-05-18 21:00",4.02413550254341,"Approved","OW361"
"2023-05-18 22:00",4.02513822136467,"Approved","OW361"
"2023-05-18 23:00",4.02814094018593,"Approved","OW361"
"2023-05-19 00:00",4.02814365900719,"Approved","OW361"
"2023-05-19 01:00",4.02914637782845,"Approved","OW361"
"2023-05-19 02:00",4.02914909664971,"Approved","OW361"
"2023-05-19 03:00",4.03215181547097,"Approved","OW361"
"2023-05-19 04:00",4.03915453429223,"Approved","OW361"
"2023-05-19 05:00",4.04515725311349,"Approved","OW361"
"2023-05-19 06:00",4.04915997193475,"Approved","OW361"
"2023-05-19 07:00",4.05416269075601,"Approved","OW361"
"2023-05-19 08:00",4.05616540957727,"Approved","OW361"
"2023-05-19 09:00",4.05816812839853,"Approved","OW361"
"2023-05-19 10:00",4.06017084721979,"Approved","OW361"
"2023-05-19 11:00",4.06417356604105,"Approved","OW361"
"2023-05-19 12:00",4.0661762848623,"Approved","OW361"
"2023-05-19 13:00",4.06917900368356,"Approved","OW361"
"2023-05-19 14:00",4.07318172250482,"Approved","OW361"
"2023-05-19 15:00",4.07518444132608,"Approved","OW361"
"2023-05-19 16:00",4.07418716014734,"Approved","OW361"
"2023-05-19 17:00",4.0731898789686,"Approved","OW361"
"2023-05-19 18:00",4.07019259778986,"Approved","OW361"
"2023-05-19 19:00",4.06619531661112,"Approved","OW361"
"2023-05-19 20:00",4.06119803543238,"Approved","OW361"
"2023-05-19 21:00",4.05920075425364,"Approved","OW361"
"2023-05-19 22:00",4.0572034730749,"Approved","OW361"
"2023-05-19 23:00",4.05220619189616,"Approved","OW361"
"2023-05-20 00:00",4.04620891071742,"Approved","OW361"
"2023-05-20 01:00",4.04321162953868,"Approved","OW361"
"2023-05-20 02:00",4.04021434835994,"Approved","OW361"
"2023-05-20 03:00",4.0392170671812,"Approved","OW361"
"2023-05-20 04:00",4.04421978600246,"Approved","OW361"
"2023-05-20 05:00",4.05122250482372,"Approved","OW361"
"2023-05-20 06:00",4.05322522364497,"Approved","OW361"
"2023-05-20 07:00",4.05422794246623,"Approved","OW361"
"2023-05-20 08:00",4.05823066128749,"Approved","OW361"
"2023-05-20 09:00",4.05923338010875,"Approved","OW361"
"2023-05-20 10:00",4.06223609893001,"Approved","OW361"
"2023-05-20 11:00",4.06523881775127,"Approved","OW361"
"2023-05-20 12:00",4.06724153657253,"Approved","OW361"
"2023-05-20 13:00",4.07024425539379,"Approved","OW361"
"2023-05-20 14:00",4.07424697421505,"Approved","OW361"
"2023-05-20 15:00",4.07824969303631,"Approved","OW361"
"2023-05-20 16:00",4.07925241185757,"Approved","OW361"
"2023-05-20 17:00",4.07625513067883,"Approved","OW361"
"2023-05-20 18:00",4.07325784950009,"Approved","OW361"
"2023-05-20 19:00",4.07226056832135,"Approved","OW361"
"2023-05-20 20:00",4.06926328714261,"Approved","OW361"
"2023-05-20 21:00",4.06726600596387,"Approved","OW361"
"2023-05-20 22:00",4.06426872478513,"Approved","OW361"
"2023-05-20 23:00",4.06027144360638,"Approved","OW361"
"2023-05-21 00:00",4.05727416242764,"Approved","OW361"
"2023-05-21 01:00",4.0572768812489,"Approved","OW361"
"2023-05-21 02:00",4.05727960007016,"Approved","OW361"
"2023-05-21 03:00",4.05828231889142,"Approved","OW361"
"2023-05-21 04:00",4.06128503771268,"Approved","OW361"
"2023-05-21 05:00",4.06428775653394,"Approved","OW361"
"2023-05-21 06:00",4.0692904753552,"Approved","OW361"
"2023-05-21 07:00",4.07329319417646,"Approved","OW361"
"2023-05-21 08:00",4.07429591299772,"Approved","OW361"
"2023-05-21 09:00",4.07729863181898,"Approved","OW361"
"2023-05-21 10:00",4.07930135064024,"Approved","OW361"
"2023-05-21 11:00",4.0813040694615,"Approved","OW361"
"2023-05-21 12:00",4.08430678828276,"Approved","OW361"
"2023-05-21 13:00",4.08730950710402,"Approved","OW361"
"2023-05-21 14:00",4.08931222592528,"Approved","OW361"
"2023-05-21 15:00",4.09231494474654,"Approved","OW361"
"2023-05-21 16:00",4.09631766356779,"Approved","OW361"
"2023-05-21 17:00",4.09732038238905,"Approved","OW361"
"2023-05-21 18:00",4.09632310121031,"Approved","OW361"
"2023-05-21 19:00",4.09732582003157,"Approved","OW361"
"2023-05-21 20:00",4.09632853885283,"Approved","OW361"
"2023-05-21 21:00",4.09433125767409,"Approved","OW361"
"2023-05-21 22:00",4.09433397649535,"Approved","OW361"
"2023-05-21 23:00",4.09233669531661,"Approved","OW361"
"2023-05-22 00:00",4.09033941413787,"Approved","OW361"
"2023-05-22 01:00",4.08834213295913,"Approved","OW361"
"2023-05-22 02:00",4.08634485178039,"Approved","OW361"
"2023-05-22 03:00",4.08634757060165,"Approved","OW361"
"2023-05-22 04:00",4.08935028942291,"Approved","OW361"
"2023-05-22 05:00",4.09235300824417,"Approved","OW361"
"2023-05-22 06:00",4.09235572706543,"Approved","OW361"
"2023-05-22 07:00",4.09335844588669,"Approved","OW361"
"2023-05-22 08:00",4.09336116470795,"Approved","OW361"
"2023-05-22 09:00",4.09136388352921,"Approved","OW361"
"2023-05-22 10:00",4.09236660235046,"Approved","OW361"
"2023-05-22 11:00",4.09436932117172,"Approved","OW361"
"2023-05-22 12:00",4.09237203999298,"Approved","OW361"
"2023-05-22 13:00",4.09337475881424,"Approved","OW361"
"2023-05-22 14:00",4.0953774776355,"Approved","OW361"
"2023-05-22 15:00",4.09638019645676,"Approved","OW361"
"2023-05-22 16:00",4.09838291527802,"Approved","OW361"
"2023-05-22 17:00",4.09938563409928,"Approved","OW361"
"2023-05-22 18:00",4.10038835292054,"Approved","OW361"
"2023-05-22 19:00",4.1033910717418,"Approved","OW361"
"2023-05-22 20:00",4.10539379056306,"Approved","OW361"
"2023-05-22 21:00",4.10739650938432,"Approved","OW361"
"2023-05-22 22:00",4.10839922820558,"Approved","OW361"
"2023-05-22 23:00",4.10740194702684,"Approved","OW361"
"2023-05-23 00:00",4.1044046658481,"Approved","OW361"
"2023-05-23 01:00",4.10440738466936,"Approved","OW361"
"2023-05-23 02:00",4.10241010349062,"Approved","OW361"
"2023-05-23 03:00",4.10241282231187,"Approved","OW361"
"2023-05-23 04:00",4.10141554113313,"Approved","OW361"
"2023-05-23 05:00",4.10341825995439,"Approved","OW361"
"2023-05-23 06:00",4.10442097877565,"Approved","OW361"
"2023-05-23 07:00",4.10342369759691,"Approved","OW361"
"2023-05-23 08:00",4.10642641641817,"Approved","OW361"
"2023-05-23 09:00",4.10742913523943,"Approved","OW361"
"2023-05-23 10:00",4.10443185406069,"Approved","OW361"
"2023-05-23 11:00",4.10143457288195,"Approved","OW361"
"2023-05-23 12:00",4.10443729170321,"Approved","OW361"
"2023-05-23 13:00",4.10444001052447,"Approved","OW361"
"2023-05-23 14:00",4.10444272934573,"Approved","OW361"
"2023-05-23 15:00",4.10644544816699,"Approved","OW361"
"2023-05-23 16:00",4.10444816698825,"Approved","OW361"
"2023-05-23 17:00",4.10445088580951,"Approved","OW361"
"2023-05-23 18:00",4.10445360463077,"Approved","OW361"
"2023-05-23 19:00",4.10545632345203,"Approved","OW361"